Hillsboro, OR

1:33 AM PST on January 22, 2017 (GMT -0800)
Portland-Hillsboro

Weather History for KHIO - September, 2013

Change the Weather History Date:

Tuesday, September 17, 2013

  Actual Average Record
Temperature  
Mean Temperature 59 °F 60 °F  
Max Temperature 68 °F 75 °F 94 °F (1951)
Min Temperature 49 °F 46 °F 29 °F (1965)
Degree Days  
Heating Degree Days 6 5  
Month to date heating degree days 13 63  
Since 1 July heating degree days 48 170  
Cooling Degree Days 0 0  
Month to date cooling degree days 64 16  
Year to date cooling degree days 310 194  
Growing Degree Days 9 (Base 50)    
Moisture  
Dew Point 51 °F    
Average Humidity 73    
Maximum Humidity 100    
Minimum Humidity 45    
Precipitation  
Precipitation T in 0.05 in 0.73 in (1969)
Month to date precipitation 1.87 0.56  
Year to date precipitation 15.49 22.63  
Snow  
Snow 0.00 in - - ()
Month to date snowfall 0.0  
Since 1 July snowfall 0.0  
Since 1 September snowfall 0.0  
Snow Depth 0.00 in    
Sea Level Pressure  
Sea Level Pressure 29.91 in    
Wind  
Wind Speed 5 mph (NW)    
Max Wind Speed 16 mph    
Max Gust Speed 20 mph    
Visibility 10 miles    
Events Rain    
T = Trace of Precipitation, MM = Missing Value Source: NWS Daily Summary

Daily Weather History Graph

Daily Weather History Graph

Search for Another Location

Airport or City:

Trip Planner

Search our weather history database for the weather conditions in past years. The results will help you decide how hot, cold, wet, or windy it might be!

Date:

Astronomy

Sep. 17, 2013 Rise Set
Actual Time 6:53 AM PDT 7:18 PM PDT
Civil Twilight 6:23 AM PDT 7:47 PM PDT
Nautical Twilight 5:48 AM PDT 8:23 PM PDT
Astronomical Twilight 5:11 AM PDT 8:59 PM PDT
Moon 6:10 PM PDT (9/17) 4:50 AM PDT (9/17)
Length of Visible Light 13h 24m
Length of Day
12h 25m
Waxing Gibbous, 96% of the Moon is Illuminated
Sep 17
Waxing Gibbous
Sep 19
Full
Sep 26
Last Quarter
Oct 4
New
Oct 11
First Quarter

Hourly Weather History & Observations

Time (PDT) Temp. Dew Point Humidity Pressure Visibility Wind Dir Wind Speed Gust Speed Precip Events Conditions
12:15 AM 57.9 °F 57.0 °F 97% 29.92 in 10.0 mi NW 4.6 mph - N/A   Overcast
12:37 AM 57.0 °F 55.9 °F 96% 29.91 in 10.0 mi NW 5.8 mph - N/A   Mostly Cloudy
12:53 AM 57.0 °F 55.0 °F 93% 29.91 in 10.0 mi NNW 4.6 mph - N/A   Mostly Cloudy
1:53 AM 57.0 °F 55.0 °F 93% 29.90 in 10.0 mi Calm Calm - N/A   Overcast
2:53 AM 57.0 °F 55.0 °F 93% 29.89 in 10.0 mi Calm Calm - N/A   Mostly Cloudy
3:53 AM 55.9 °F 53.1 °F 90% 29.88 in 10.0 mi WNW 5.8 mph - N/A   Overcast
4:53 AM 55.0 °F 51.1 °F 86% 29.89 in 10.0 mi NW 4.6 mph - N/A   Mostly Cloudy
5:53 AM 54.0 °F 51.1 °F 90% 29.88 in 10.0 mi NW 4.6 mph - N/A   Clear
6:53 AM 52.0 °F 51.1 °F 97% 29.88 in 10.0 mi WNW 3.5 mph - N/A   Clear
7:53 AM 55.9 °F 52.0 °F 87% 29.87 in 10.0 mi Calm Calm - N/A   Scattered Clouds
8:53 AM 57.9 °F 52.0 °F 81% 29.88 in 10.0 mi WNW 4.6 mph - N/A   Mostly Cloudy
9:53 AM 59.0 °F 51.1 °F 75% 29.89 in 10.0 mi West 5.8 mph - N/A   Partly Cloudy
10:53 AM 61.0 °F 48.9 °F 64% 29.89 in 10.0 mi NW 3.5 mph - N/A   Overcast
11:53 AM 66.0 °F 48.0 °F 52% 29.88 in 10.0 mi North 5.8 mph - N/A   Scattered Clouds
12:53 PM 66.0 °F 45.0 °F 47% 29.88 in 10.0 mi Variable 5.8 mph - N/A   Mostly Cloudy
1:53 PM 66.0 °F 46.9 °F 50% 29.88 in 10.0 mi North 8.1 mph - N/A   Overcast
2:53 PM 64.0 °F 48.9 °F 58% 29.89 in 10.0 mi NW 11.5 mph - 0.00 in   Overcast
3:53 PM 64.0 °F 51.1 °F 63% 29.90 in 10.0 mi WNW 11.5 mph - 0.00 in Rain Light Rain
4:53 PM 66.9 °F 48.9 °F 52% 29.90 in 10.0 mi WNW 9.2 mph - 0.00 in   Scattered Clouds
5:53 PM 64.9 °F 48.0 °F 54% 29.91 in 10.0 mi NW 9.2 mph - N/A   Scattered Clouds
6:53 PM 62.1 °F 48.0 °F 60% 29.93 in 10.0 mi WNW 6.9 mph - N/A   Partly Cloudy
7:53 PM 59.0 °F 48.9 °F 69% 29.95 in 10.0 mi West 4.6 mph - N/A   Partly Cloudy
8:53 PM 54.0 °F 48.0 °F 80% 29.98 in 10.0 mi Calm Calm - N/A   Clear
9:53 PM 55.0 °F 48.9 °F 80% 29.99 in 10.0 mi WSW 3.5 mph - N/A   Scattered Clouds
10:53 PM 53.1 °F 48.9 °F 86% 30.00 in 10.0 mi WNW 3.5 mph - N/A   Clear
11:53 PM 51.1 °F 48.9 °F 92% 30.00 in 10.0 mi Calm Calm - N/A   Clear